contact:dominique.lefevre@mio.osupytheas.fr, maurice.libes@osupytheas.fr, didier.mallarino@osupytheas.fr
Project:EMSO http://www.emso-fr.org/EMSO-France
Depth: 2436.0 m
Title:EMSO Ligure Ouest : Data MII capteur CSTAR
DateTime,Latitude,Longitude,Instrument_Serial,Reference_Counts,Signal_Counts,Corrected_Signal_raw_counts,Calculated_Beam_c_inverse_meters,Internal_thermistor_counts
DateTime,Latitude,Longitude,Instrument_Serial,Reference_Counts,Signal_Counts,Corrected_Signal_raw_counts,Calculated_Beam_c_inverse_meters,Internal_thermistor_counts
2019-12-05T00:01:28,42.805,6.029,CST-1368DR,7226,10130,15300,0.082,551
2019-12-05T00:04:29,42.805,6.029,CST-1368DR,7226,10130,15300,0.082,551
2019-12-05T00:07:31,42.805,6.029,CST-1368DR,7226,10130,15300,0.082,551
2019-12-05T00:10:33,42.805,6.029,CST-1368DR,7226,10130,15300,0.082,551
2019-12-05T00:13:34,42.805,6.029,CST-1368DR,7225,10130,15302,0.081,551
2019-12-05T00:16:36,42.805,6.029,CST-1368DR,7225,10131,15303,0.081,550
2019-12-05T00:19:37,42.805,6.029,CST-1368DR,7225,10129,15300,0.082,551
2019-12-05T00:22:39,42.805,6.029,CST-1368DR,7225,10130,15302,0.081,551
2019-12-05T00:25:41,42.805,6.029,CST-1368DR,7225,10130,15301,0.082,551
2019-12-05T00:28:42,42.805,6.029,CST-1368DR,7225,10128,15299,0.082,551
2019-12-05T00:31:44,42.805,6.029,CST-1368DR,7225,10129,15301,0.082,551
2019-12-05T00:34:46,42.805,6.029,CST-1368DR,7225,10131,15303,0.081,551
2019-12-05T00:37:47,42.805,6.029,CST-1368DR,7225,10130,15302,0.081,551
2019-12-05T00:40:49,42.805,6.029,CST-1368DR,7225,10129,15301,0.082,551
2019-12-05T00:43:50,42.805,6.029,CST-1368DR,7225,10129,15300,0.082,551
2019-12-05T00:46:52,42.805,6.029,CST-1368DR,7225,10130,15301,0.082,551
2019-12-05T00:49:54,42.805,6.029,CST-1368DR,7225,10130,15302,0.081,551
2019-12-05T00:52:55,42.805,6.029,CST-1368DR,7225,10130,15301,0.082,551
2019-12-05T00:55:57,42.805,6.029,CST-1368DR,7225,10125,15294,0.083,551
2019-12-05T00:58:59,42.805,6.029,CST-1368DR,7225,10128,15298,0.082,551
2019-12-05T01:02:00,42.805,6.029,CST-1368DR,7225,10129,15300,0.082,551
2019-12-05T01:05:02,42.805,6.029,CST-1368DR,7225,10128,15299,0.082,551
2019-12-05T01:08:03,42.805,6.029,CST-1368DR,7225,10129,15300,0.082,551
2019-12-05T01:11:05,42.805,6.029,CST-1368DR,7225,10130,15301,0.082,551
2019-12-05T01:14:07,42.805,6.029,CST-1368DR,7225,10130,15301,0.082,551
2019-12-05T01:17:08,42.805,6.029,CST-1368DR,7225,10130,15302,0.081,551
2019-12-05T01:20:10,42.805,6.029,CST-1368DR,7225,10129,15300,0.082,551
2019-12-05T01:23:12,42.805,6.029,CST-1368DR,7225,10127,15298,0.082,551
2019-12-05T01:26:13,42.805,6.029,CST-1368DR,7225,10130,15301,0.082,551
2019-12-05T01:29:15,42.805,6.029,CST-1368DR,7225,10130,15302,0.081,551
2019-12-05T01:32:17,42.805,6.029,CST-1368DR,7225,10127,15297,0.083,551
2019-12-05T01:35:18,42.805,6.029,CST-1368DR,7225,10128,15299,0.082,551
2019-12-05T01:38:20,42.805,6.029,CST-1368DR,7225,10128,15299,0.082,551
2019-12-05T01:41:21,42.805,6.029,CST-1368DR,7225,10128,15299,0.082,551
2019-12-05T01:44:23,42.805,6.029,CST-1368DR,7225,10129,15301,0.082,550
2019-12-05T01:47:25,42.805,6.029,CST-1368DR,7225,10129,15300,0.082,551
2019-12-05T01:50:26,42.805,6.029,CST-1368DR,7225,10129,15300,0.082,551
2019-12-05T01:53:28,42.805,6.029,CST-1368DR,7225,10128,15299,0.082,551
2019-12-05T01:56:30,42.805,6.029,CST-1368DR,7225,10128,15299,0.082,551
2019-12-05T01:59:31,42.805,6.029,CST-1368DR,7225,10128,15298,0.082,551
2019-12-05T02:02:33,42.805,6.029,CST-1368DR,7225,10129,15300,0.082,551
2019-12-05T02:05:34,42.805,6.029,CST-1368DR,7225,10128,15299,0.082,551
2019-12-05T02:08:36,42.805,6.029,CST-1368DR,7225,10127,15297,0.083,551
2019-12-05T02:11:38,42.805,6.029,CST-1368DR,7225,10127,15298,0.082,551
2019-12-05T02:14:39,42.805,6.029,CST-1368DR,7225,10128,15299,0.082,551
2019-12-05T02:17:41,42.805,6.029,CST-1368DR,7225,10127,15297,0.083,551
2019-12-05T02:20:43,42.805,6.029,CST-1368DR,7225,10129,15300,0.082,551
2019-12-05T02:23:44,42.805,6.029,CST-1368DR,7225,10129,15300,0.082,551
2019-12-05T02:26:46,42.805,6.029,CST-1368DR,7225,10128,15299,0.082,551
2019-12-05T02:29:48,42.805,6.029,CST-1368DR,7225,10129,15300,0.082,551
2019-12-05T02:32:49,42.805,6.029,CST-1368DR,7225,10128,15299,0.082,551
2019-12-05T02:35:51,42.805,6.029,CST-1368DR,7225,10128,15299,0.082,551
2019-12-05T02:38:52,42.805,6.029,CST-1368DR,7225,10128,15299,0.082,551
2019-12-05T02:41:54,42.805,6.029,CST-1368DR,7225,10128,15299,0.082,551
2019-12-05T02:44:56,42.805,6.029,CST-1368DR,7225,10129,15300,0.082,551
2019-12-05T02:47:57,42.805,6.029,CST-1368DR,7225,10128,15299,0.082,550
2019-12-05T02:50:59,42.805,6.029,CST-1368DR,7225,10126,15295,0.083,550
2019-12-05T02:54:01,42.805,6.029,CST-1368DR,7225,10129,15300,0.082,551
2019-12-05T02:57:02,42.805,6.029,CST-1368DR,7225,10128,15299,0.082,551
2019-12-05T03:00:04,42.805,6.029,CST-1368DR,7224,10128,15301,0.082,551
2019-12-05T03:03:05,42.805,6.029,CST-1368DR,7224,10127,15300,0.082,551
2019-12-05T03:06:07,42.805,6.029,CST-1368DR,7224,10128,15300,0.082,551
2019-12-05T03:09:09,42.805,6.029,CST-1368DR,7224,10126,15297,0.083,551
2019-12-05T03:12:10,42.805,6.029,CST-1368DR,7225,10128,15299,0.082,551
2019-12-05T03:15:12,42.805,6.029,CST-1368DR,7225,10128,15299,0.082,551
2019-12-05T03:18:14,42.805,6.029,CST-1368DR,7225,10128,15299,0.082,551
2019-12-05T03:21:15,42.805,6.029,CST-1368DR,7224,10128,15301,0.082,551
2019-12-05T03:24:17,42.805,6.029,CST-1368DR,7224,10126,15297,0.083,551
2019-12-05T03:27:19,42.805,6.029,CST-1368DR,7224,10128,15301,0.082,551
2019-12-05T03:30:20,42.805,6.029,CST-1368DR,7225,10128,15299,0.082,551
2019-12-05T03:33:22,42.805,6.029,CST-1368DR,7224,10127,15299,0.082,550
2019-12-05T03:36:23,42.805,6.029,CST-1368DR,7224,10128,15300,0.082,551
2019-12-05T03:39:25,42.805,6.029,CST-1368DR,7224,10127,15299,0.082,551
2019-12-05T03:42:27,42.805,6.029,CST-1368DR,7224,10128,15300,0.082,551
2019-12-05T03:45:28,42.805,6.029,CST-1368DR,7224,10128,15300,0.082,551
2019-12-05T03:48:30,42.805,6.029,CST-1368DR,7224,10126,15298,0.082,551
2019-12-05T03:51:32,42.805,6.029,CST-1368DR,7224,10127,15299,0.082,551
2019-12-05T03:54:33,42.805,6.029,CST-1368DR,7224,10127,15299,0.082,551
2019-12-05T03:57:35,42.805,6.029,CST-1368DR,7224,10127,15300,0.082,551
2019-12-05T04:00:36,42.805,6.029,CST-1368DR,7224,10128,15300,0.082,551
2019-12-05T04:03:38,42.805,6.029,CST-1368DR,7224,10127,15299,0.082,551
2019-12-05T04:06:40,42.805,6.029,CST-1368DR,7224,10128,15300,0.082,551
2019-12-05T04:09:41,42.805,6.029,CST-1368DR,7224,10127,15299,0.082,551
2019-12-05T04:12:43,42.805,6.029,CST-1368DR,7224,10128,15301,0.082,551
2019-12-05T04:15:45,42.805,6.029,CST-1368DR,7224,10128,15301,0.082,551
2019-12-05T04:18:46,42.805,6.029,CST-1368DR,7224,10126,15298,0.082,551
2019-12-05T04:21:48,42.805,6.029,CST-1368DR,7224,10127,15300,0.082,551
2019-12-05T04:24:49,42.805,6.029,CST-1368DR,7224,10128,15300,0.082,551
2019-12-05T04:27:51,42.805,6.029,CST-1368DR,7224,10128,15301,0.082,550
2019-12-05T04:30:53,42.805,6.029,CST-1368DR,7224,10127,15300,0.082,551
2019-12-05T04:33:54,42.805,6.029,CST-1368DR,7224,10127,15299,0.082,551
2019-12-05T04:36:56,42.805,6.029,CST-1368DR,7224,10128,15301,0.082,551
2019-12-05T04:39:58,42.805,6.029,CST-1368DR,7224,10126,15298,0.082,551
2019-12-05T04:42:59,42.805,6.029,CST-1368DR,7224,10127,15299,0.082,551
2019-12-05T04:46:01,42.805,6.029,CST-1368DR,7224,10127,15299,0.082,551
2019-12-05T04:49:03,42.805,6.029,CST-1368DR,7224,10127,15299,0.082,551
2019-12-05T04:52:04,42.805,6.029,CST-1368DR,7224,10127,15299,0.082,551
2019-12-05T04:55:06,42.805,6.029,CST-1368DR,7224,10128,15300,0.082,551
2019-12-05T04:58:08,42.805,6.029,CST-1368DR,7224,10126,15297,0.083,551
2019-12-05T05:01:09,42.805,6.029,CST-1368DR,7224,10126,15298,0.082,551
2019-12-05T05:04:11,42.805,6.029,CST-1368DR,7224,10127,15299,0.082,551
2019-12-05T05:07:12,42.805,6.029,CST-1368DR,7224,10128,15300,0.082,551
2019-12-05T05:10:14,42.805,6.029,CST-1368DR,7224,10126,15297,0.083,551
2019-12-05T05:13:16,42.805,6.029,CST-1368DR,7224,10126,15297,0.083,551
2019-12-05T05:16:17,42.805,6.029,CST-1368DR,7224,10127,15299,0.082,551
2019-12-05T05:19:19,42.805,6.029,CST-1368DR,7224,10127,15299,0.082,551
2019-12-05T05:22:21,42.805,6.029,CST-1368DR,7224,10127,15299,0.082,551
2019-12-05T05:25:22,42.805,6.029,CST-1368DR,7224,10128,15300,0.082,551
2019-12-05T05:28:24,42.805,6.029,CST-1368DR,7224,10126,15297,0.083,551
2019-12-05T05:31:25,42.805,6.029,CST-1368DR,7224,10126,15298,0.082,551
2019-12-05T05:34:27,42.805,6.029,CST-1368DR,7224,10124,15294,0.083,551
2019-12-05T05:37:29,42.805,6.029,CST-1368DR,7224,10126,15298,0.082,551
2019-12-05T05:40:30,42.805,6.029,CST-1368DR,7224,10126,15297,0.083,551
2019-12-05T05:43:32,42.805,6.029,CST-1368DR,7224,10127,15300,0.082,551
2019-12-05T05:46:34,42.805,6.029,CST-1368DR,7224,10127,15300,0.082,551
2019-12-05T05:49:35,42.805,6.029,CST-1368DR,7224,10126,15298,0.082,551
2019-12-05T05:52:37,42.805,6.029,CST-1368DR,7224,10127,15299,0.082,551
2019-12-05T05:55:39,42.805,6.029,CST-1368DR,7224,10124,15295,0.083,551
2019-12-05T05:58:40,42.805,6.029,CST-1368DR,7224,10126,15298,0.082,551
2019-12-05T06:01:42,42.805,6.029,CST-1368DR,7224,10126,15297,0.083,551
2019-12-05T06:04:43,42.805,6.029,CST-1368DR,7224,10127,15299,0.082,551
2019-12-05T06:07:45,42.805,6.029,CST-1368DR,7224,10126,15298,0.082,551
2019-12-05T06:10:47,42.805,6.029,CST-1368DR,7224,10127,15299,0.082,551
2019-12-05T06:13:48,42.805,6.029,CST-1368DR,7224,10126,15298,0.082,551
2019-12-05T06:16:50,42.805,6.029,CST-1368DR,7224,10127,15299,0.082,551
2019-12-05T06:19:52,42.805,6.029,CST-1368DR,7224,10126,15298,0.082,551
2019-12-05T06:22:53,42.805,6.029,CST-1368DR,7224,10127,15299,0.082,551
2019-12-05T06:25:55,42.805,6.029,CST-1368DR,7224,10128,15300,0.082,551
2019-12-05T06:28:57,42.805,6.029,CST-1368DR,7224,10127,15299,0.082,551
2019-12-05T06:31:58,42.805,6.029,CST-1368DR,7224,10126,15298,0.082,551
2019-12-05T06:35:00,42.805,6.029,CST-1368DR,7224,10128,15300,0.082,551
2019-12-05T06:38:02,42.805,6.029,CST-1368DR,7224,10127,15299,0.082,551
2019-12-05T06:41:03,42.805,6.029,CST-1368DR,7223,10127,15301,0.082,551
2019-12-05T06:44:05,42.805,6.029,CST-1368DR,7224,10126,15298,0.082,551
2019-12-05T06:47:06,42.805,6.029,CST-1368DR,7224,10128,15300,0.082,551
2019-12-05T06:50:08,42.805,6.029,CST-1368DR,7223,10127,15301,0.082,551
2019-12-05T06:53:10,42.805,6.029,CST-1368DR,7224,10126,15298,0.082,550
2019-12-05T06:56:11,42.805,6.029,CST-1368DR,7223,10127,15301,0.082,551
2019-12-05T06:59:13,42.805,6.029,CST-1368DR,7224,10127,15299,0.082,551
2019-12-05T07:02:15,42.805,6.029,CST-1368DR,7224,10126,15298,0.082,551
2019-12-05T07:05:16,42.805,6.029,CST-1368DR,7223,10126,15300,0.082,551
2019-12-05T07:08:18,42.805,6.029,CST-1368DR,7223,10126,15299,0.082,551
2019-12-05T07:11:20,42.805,6.029,CST-1368DR,7223,10127,15301,0.082,551
2019-12-05T07:14:21,42.805,6.029,CST-1368DR,7223,10127,15301,0.082,551
2019-12-05T07:17:23,42.805,6.029,CST-1368DR,7223,10127,15301,0.082,551
2019-12-05T07:20:24,42.805,6.029,CST-1368DR,7223,10127,15301,0.082,551
2019-12-05T07:23:26,42.805,6.029,CST-1368DR,7223,10126,15300,0.082,551
2019-12-05T07:26:28,42.805,6.029,CST-1368DR,7223,10120,15291,0.084,550
2019-12-05T07:29:29,42.805,6.029,CST-1368DR,7223,10126,15300,0.082,551
2019-12-05T07:32:31,42.805,6.029,CST-1368DR,7223,10127,15301,0.082,551
2019-12-05T07:35:33,42.805,6.029,CST-1368DR,7223,10126,15300,0.082,551
2019-12-05T07:38:34,42.805,6.029,CST-1368DR,7223,10126,15300,0.082,551
2019-12-05T07:41:36,42.805,6.029,CST-1368DR,7223,10126,15300,0.082,551
2019-12-05T07:44:37,42.805,6.029,CST-1368DR,7223,10126,15300,0.082,551
2019-12-05T07:47:39,42.805,6.029,CST-1368DR,7223,10127,15301,0.082,550
2019-12-05T07:50:41,42.805,6.029,CST-1368DR,7223,10126,15299,0.082,551
2019-12-05T07:53:42,42.805,6.029,CST-1368DR,7223,10127,15301,0.082,551
2019-12-05T07:56:44,42.805,6.029,CST-1368DR,7223,10127,15301,0.082,551
2019-12-05T07:59:46,42.805,6.029,CST-1368DR,7223,10126,15300,0.082,551
2019-12-05T08:02:47,42.805,6.029,CST-1368DR,7223,10126,15300,0.082,551
2019-12-05T08:05:49,42.805,6.029,CST-1368DR,7223,10115,15284,0.086,551
2019-12-05T08:08:50,42.805,6.029,CST-1368DR,7223,10126,15300,0.082,551
2019-12-05T08:11:52,42.805,6.029,CST-1368DR,7223,10126,15300,0.082,551
2019-12-05T08:14:54,42.805,6.029,CST-1368DR,7223,10126,15300,0.082,551
2019-12-05T08:17:55,42.805,6.029,CST-1368DR,7223,10127,15301,0.082,551
2019-12-05T08:20:57,42.805,6.029,CST-1368DR,7223,10126,15300,0.082,551
2019-12-05T08:23:59,42.805,6.029,CST-1368DR,7223,10126,15300,0.082,551
2019-12-05T08:27:00,42.805,6.029,CST-1368DR,7223,10124,15296,0.083,551
2019-12-05T08:30:02,42.805,6.029,CST-1368DR,7223,10125,15298,0.082,550
2019-12-05T08:33:04,42.805,6.029,CST-1368DR,7223,10127,15301,0.082,551
2019-12-05T08:36:05,42.805,6.029,CST-1368DR,7223,10126,15299,0.082,551
2019-12-05T08:39:07,42.805,6.029,CST-1368DR,7223,10126,15299,0.082,551
2019-12-05T08:42:08,42.805,6.029,CST-1368DR,7223,10126,15299,0.082,550
2019-12-05T08:45:10,42.805,6.029,CST-1368DR,7223,10126,15299,0.082,551
2019-12-05T08:48:12,42.805,6.029,CST-1368DR,7223,10126,15300,0.082,551
2019-12-05T08:51:13,42.805,6.029,CST-1368DR,7223,10125,15298,0.082,551
2019-12-05T08:54:15,42.805,6.029,CST-1368DR,7223,10126,15300,0.082,551
2019-12-05T08:57:17,42.805,6.029,CST-1368DR,7223,10126,15300,0.082,551
2019-12-05T09:00:18,42.805,6.029,CST-1368DR,7223,10126,15300,0.082,551
2019-12-05T09:03:20,42.805,6.029,CST-1368DR,7223,10126,15300,0.082,551
2019-12-05T09:06:21,42.805,6.029,CST-1368DR,7223,10126,15299,0.082,551
2019-12-05T09:09:23,42.805,6.029,CST-1368DR,7223,10125,15299,0.082,551
2019-12-05T09:12:25,42.805,6.029,CST-1368DR,7223,10126,15299,0.082,551
2019-12-05T09:15:26,42.805,6.029,CST-1368DR,7223,10126,15299,0.082,551
2019-12-05T09:18:28,42.805,6.029,CST-1368DR,7223,10125,15299,0.082,551
2019-12-05T09:21:30,42.805,6.029,CST-1368DR,7223,10126,15299,0.082,551
2019-12-05T09:24:31,42.805,6.029,CST-1368DR,7223,10125,15298,0.082,550
2019-12-05T09:27:33,42.805,6.029,CST-1368DR,7223,10126,15299,0.082,551
2019-12-05T09:30:34,42.805,6.029,CST-1368DR,7223,10123,15295,0.083,551
2019-12-05T09:33:36,42.805,6.029,CST-1368DR,7223,10116,15285,0.086,551
2019-12-05T09:36:38,42.805,6.029,CST-1368DR,7223,10126,15299,0.082,551
2019-12-05T09:39:40,42.805,6.029,CST-1368DR,7223,10124,15296,0.083,551
2019-12-05T09:42:42,42.805,6.029,CST-1368DR,7223,10125,15298,0.082,551
2019-12-05T09:45:43,42.805,6.029,CST-1368DR,7223,10126,15299,0.082,551
2019-12-05T09:48:45,42.805,6.029,CST-1368DR,7223,10126,15299,0.082,551
2019-12-05T09:51:46,42.805,6.029,CST-1368DR,7223,10125,15298,0.082,551
2019-12-05T09:54:48,42.805,6.029,CST-1368DR,7223,10125,15298,0.082,551
2019-12-05T09:57:50,42.805,6.029,CST-1368DR,7223,10126,15299,0.082,551
2019-12-05T10:00:52,42.805,6.029,CST-1368DR,7223,10125,15299,0.082,551
2019-12-05T10:03:53,42.805,6.029,CST-1368DR,7223,10126,15300,0.082,551
2019-12-05T10:06:55,42.805,6.029,CST-1368DR,7223,10125,15298,0.082,551
2019-12-05T10:09:56,42.805,6.029,CST-1368DR,7223,10125,15299,0.082,551
2019-12-05T10:12:58,42.805,6.029,CST-1368DR,7223,10125,15298,0.082,551
2019-12-05T10:16:00,42.805,6.029,CST-1368DR,7223,10125,15298,0.082,551
2019-12-05T10:19:01,42.805,6.029,CST-1368DR,7222,10124,15299,0.082,551
2019-12-05T10:22:03,42.805,6.029,CST-1368DR,7223,10125,15298,0.082,551
2019-12-05T10:25:05,42.805,6.029,CST-1368DR,7223,10126,15299,0.082,551
2019-12-05T10:28:06,42.805,6.029,CST-1368DR,7223,10123,15296,0.083,551
2019-12-05T10:31:08,42.805,6.029,CST-1368DR,7222,10126,15302,0.081,551
2019-12-05T10:34:10,42.805,6.029,CST-1368DR,7222,10125,15300,0.082,551
2019-12-05T10:37:11,42.805,6.029,CST-1368DR,7223,10126,15299,0.082,551
2019-12-05T10:40:13,42.805,6.029,CST-1368DR,7223,10126,15299,0.082,551
2019-12-05T10:43:14,42.805,6.029,CST-1368DR,7222,10126,15301,0.082,551
2019-12-05T10:46:16,42.805,6.029,CST-1368DR,7222,10126,15301,0.082,551
2019-12-05T10:49:18,42.805,6.029,CST-1368DR,7222,10126,15301,0.082,551
2019-12-05T10:52:19,42.805,6.029,CST-1368DR,7222,10124,15298,0.082,550
2019-12-05T10:55:21,42.805,6.029,CST-1368DR,7222,10124,15299,0.082,551
2019-12-05T10:58:23,42.805,6.029,CST-1368DR,7222,10125,15300,0.082,551
2019-12-05T11:01:24,42.805,6.029,CST-1368DR,7222,10124,15299,0.082,551
2019-12-05T11:04:26,42.805,6.029,CST-1368DR,7222,10124,15298,0.082,551
2019-12-05T11:07:28,42.805,6.029,CST-1368DR,7222,10125,15301,0.082,551
2019-12-05T11:10:29,42.805,6.029,CST-1368DR,7222,10125,15301,0.082,551
2019-12-05T11:13:31,42.805,6.029,CST-1368DR,7222,10125,15300,0.082,551
2019-12-05T11:16:33,42.805,6.029,CST-1368DR,7222,10125,15300,0.082,551
2019-12-05T11:19:34,42.805,6.029,CST-1368DR,7222,10123,15297,0.083,550
2019-12-05T11:22:36,42.805,6.029,CST-1368DR,7222,10125,15300,0.082,551
2019-12-05T11:25:38,42.805,6.029,CST-1368DR,7222,10125,15300,0.082,551
2019-12-05T11:28:39,42.805,6.029,CST-1368DR,7222,10123,15298,0.082,551
2019-12-05T11:31:41,42.805,6.029,CST-1368DR,7222,10122,15295,0.083,551
2019-12-05T11:34:43,42.805,6.029,CST-1368DR,7222,10124,15299,0.082,551
2019-12-05T11:37:44,42.805,6.029,CST-1368DR,7222,10124,15299,0.082,551
2019-12-05T11:40:46,42.805,6.029,CST-1368DR,7222,10123,15297,0.083,551
2019-12-05T11:43:48,42.805,6.029,CST-1368DR,7222,10122,15296,0.083,550
2019-12-05T11:46:49,42.805,6.029,CST-1368DR,7222,10125,15301,0.082,551
2019-12-05T11:49:51,42.805,6.029,CST-1368DR,7222,10125,15301,0.082,551
2019-12-05T11:52:53,42.805,6.029,CST-1368DR,7222,10125,15300,0.082,550
2019-12-05T11:55:54,42.805,6.029,CST-1368DR,7222,10125,15300,0.082,551
2019-12-05T11:58:56,42.805,6.029,CST-1368DR,7222,10125,15300,0.082,551
2019-12-05T12:01:58,42.805,6.029,CST-1368DR,7222,10125,15300,0.082,551
2019-12-05T12:04:59,42.805,6.029,CST-1368DR,7222,10125,15300,0.082,550
2019-12-05T12:08:01,42.805,6.029,CST-1368DR,7222,10123,15297,0.083,551
2019-12-05T12:11:02,42.805,6.029,CST-1368DR,7222,10126,15301,0.082,551
2019-12-05T12:14:04,42.805,6.029,CST-1368DR,7222,10124,15298,0.082,551
2019-12-05T12:17:06,42.805,6.029,CST-1368DR,7222,10123,15297,0.083,551
2019-12-05T12:20:07,42.805,6.029,CST-1368DR,7222,10122,15296,0.083,551
2019-12-05T12:23:09,42.805,6.029,CST-1368DR,7222,10125,15300,0.082,551
2019-12-05T12:26:11,42.805,6.029,CST-1368DR,7222,10125,15300,0.082,551
2019-12-05T12:29:12,42.805,6.029,CST-1368DR,7222,10125,15300,0.082,551
2019-12-05T12:32:14,42.805,6.029,CST-1368DR,7222,10125,15300,0.082,551
2019-12-05T12:35:15,42.805,6.029,CST-1368DR,7222,10125,15300,0.082,551
2019-12-05T12:38:17,42.805,6.029,CST-1368DR,7222,10123,15297,0.083,551
2019-12-05T12:41:19,42.805,6.029,CST-1368DR,7222,10123,15298,0.082,551
2019-12-05T12:44:20,42.805,6.029,CST-1368DR,7222,10123,15297,0.083,551
2019-12-05T12:47:22,42.805,6.029,CST-1368DR,7222,10124,15298,0.082,551
2019-12-05T12:50:24,42.805,6.029,CST-1368DR,7222,10124,15299,0.082,551
2019-12-05T12:53:25,42.805,6.029,CST-1368DR,7222,10124,15298,0.082,551
2019-12-05T12:56:27,42.805,6.029,CST-1368DR,7222,10124,15299,0.082,551
2019-12-05T12:59:28,42.805,6.029,CST-1368DR,7222,10124,15298,0.082,551
2019-12-05T13:02:30,42.805,6.029,CST-1368DR,7222,10125,15300,0.082,551
2019-12-05T13:05:32,42.805,6.029,CST-1368DR,7222,10125,15300,0.082,551
2019-12-05T13:08:33,42.805,6.029,CST-1368DR,7222,10125,15300,0.082,551
2019-12-05T13:11:35,42.805,6.029,CST-1368DR,7222,10123,15297,0.083,551
2019-12-05T13:14:37,42.805,6.029,CST-1368DR,7222,10120,15293,0.084,551
2019-12-05T13:17:38,42.805,6.029,CST-1368DR,7222,10123,15297,0.083,551
2019-12-05T13:20:40,42.805,6.029,CST-1368DR,7222,10123,15297,0.083,551
2019-12-05T13:23:41,42.805,6.029,CST-1368DR,7222,10119,15291,0.084,551
2019-12-05T13:26:43,42.805,6.029,CST-1368DR,7222,10123,15297,0.083,551
2019-12-05T13:29:45,42.805,6.029,CST-1368DR,7222,10123,15297,0.083,551
2019-12-05T13:32:46,42.805,6.029,CST-1368DR,7222,10122,15296,0.083,551
2019-12-05T13:35:48,42.805,6.029,CST-1368DR,7222,10122,15296,0.083,551
2019-12-05T13:38:50,42.805,6.029,CST-1368DR,7222,10121,15294,0.083,551
2019-12-05T13:41:51,42.805,6.029,CST-1368DR,7222,10124,15298,0.082,551
2019-12-05T13:44:53,42.805,6.029,CST-1368DR,7222,10123,15297,0.083,551
2019-12-05T13:47:54,42.805,6.029,CST-1368DR,7222,10123,15297,0.083,551
2019-12-05T13:50:56,42.805,6.029,CST-1368DR,7222,10119,15291,0.084,551
2019-12-05T13:53:58,42.805,6.029,CST-1368DR,7222,10122,15296,0.083,551
2019-12-05T13:56:59,42.805,6.029,CST-1368DR,7222,10122,15295,0.083,550
2019-12-05T14:00:01,42.805,6.029,CST-1368DR,7222,10122,15296,0.083,551
2019-12-05T14:03:02,42.805,6.029,CST-1368DR,7221,10123,15298,0.082,551
2019-12-05T14:06:04,42.805,6.029,CST-1368DR,7221,10122,15298,0.082,551
2019-12-05T14:09:06,42.805,6.029,CST-1368DR,7222,10122,15296,0.083,551
2019-12-05T14:12:07,42.805,6.029,CST-1368DR,7221,10123,15298,0.082,551
2019-12-05T14:15:09,42.805,6.029,CST-1368DR,7221,10117,15290,0.084,551
2019-12-05T14:18:11,42.805,6.029,CST-1368DR,7221,10122,15297,0.083,551
2019-12-05T14:21:12,42.805,6.029,CST-1368DR,7222,10122,15295,0.083,551
2019-12-05T14:24:14,42.805,6.029,CST-1368DR,7221,10122,15298,0.082,551
2019-12-05T14:27:15,42.805,6.029,CST-1368DR,7221,10119,15293,0.084,551
2019-12-05T14:30:17,42.805,6.029,CST-1368DR,7221,10122,15298,0.082,551
2019-12-05T14:33:19,42.805,6.029,CST-1368DR,7221,10122,15298,0.082,551
2019-12-05T14:36:20,42.805,6.029,CST-1368DR,7221,10122,15298,0.082,551
2019-12-05T14:39:22,42.805,6.029,CST-1368DR,7221,10121,15297,0.083,551
2019-12-05T14:42:24,42.805,6.029,CST-1368DR,7221,10122,15297,0.083,551
2019-12-05T14:45:25,42.805,6.029,CST-1368DR,7221,10123,15298,0.082,551
2019-12-05T14:48:27,42.805,6.029,CST-1368DR,7221,10122,15297,0.083,551
2019-12-05T14:51:28,42.805,6.029,CST-1368DR,7221,10122,15298,0.082,551
2019-12-05T14:54:30,42.805,6.029,CST-1368DR,7221,10122,15298,0.082,551
2019-12-05T14:57:32,42.805,6.029,CST-1368DR,7221,10122,15298,0.082,551
2019-12-05T15:00:33,42.805,6.029,CST-1368DR,7221,10123,15299,0.082,551
2019-12-05T15:03:35,42.805,6.029,CST-1368DR,7221,10122,15297,0.083,551
2019-12-05T15:06:37,42.805,6.029,CST-1368DR,7221,10122,15297,0.083,551
2019-12-05T15:09:38,42.805,6.029,CST-1368DR,7221,10121,15297,0.083,551
2019-12-05T15:12:40,42.805,6.029,CST-1368DR,7221,10120,15295,0.083,550
2019-12-05T15:15:42,42.805,6.029,CST-1368DR,7221,10122,15298,0.082,551
2019-12-05T15:18:43,42.805,6.029,CST-1368DR,7221,10122,15297,0.083,551
2019-12-05T15:21:45,42.805,6.029,CST-1368DR,7221,10122,15298,0.082,551
2019-12-05T15:24:47,42.805,6.029,CST-1368DR,7221,10122,15297,0.083,551
2019-12-05T15:27:48,42.805,6.029,CST-1368DR,7221,10117,15291,0.084,551
2019-12-05T15:30:50,42.805,6.029,CST-1368DR,7221,10121,15296,0.083,551
2019-12-05T15:33:52,42.805,6.029,CST-1368DR,7221,10118,15292,0.084,551
2019-12-05T15:36:53,42.805,6.029,CST-1368DR,7221,10122,15298,0.082,551
2019-12-05T15:39:55,42.805,6.029,CST-1368DR,7221,10123,15298,0.082,551
2019-12-05T15:42:56,42.805,6.029,CST-1368DR,7221,10121,15296,0.083,550
2019-12-05T15:45:58,42.805,6.029,CST-1368DR,7221,10122,15298,0.082,551
2019-12-05T15:49:00,42.805,6.029,CST-1368DR,7221,10123,15299,0.082,551
2019-12-05T15:52:01,42.805,6.029,CST-1368DR,7221,10123,15299,0.082,550
2019-12-05T15:55:03,42.805,6.029,CST-1368DR,7221,10123,15299,0.082,551
2019-12-05T15:58:05,42.805,6.029,CST-1368DR,7221,10121,15297,0.083,551
2019-12-05T16:01:06,42.805,6.029,CST-1368DR,7221,10121,15297,0.083,550
2019-12-05T16:04:08,42.805,6.029,CST-1368DR,7221,10115,15287,0.085,551
2019-12-05T16:07:09,42.805,6.029,CST-1368DR,7221,10122,15297,0.083,551
2019-12-05T16:10:11,42.805,6.029,CST-1368DR,7221,10121,15296,0.083,551
2019-12-05T16:13:13,42.805,6.029,CST-1368DR,7221,10119,15292,0.084,551
2019-12-05T16:16:14,42.805,6.029,CST-1368DR,7221,10123,15298,0.082,551
2019-12-05T16:19:16,42.805,6.029,CST-1368DR,7221,10115,15286,0.085,551
2019-12-05T16:22:18,42.805,6.029,CST-1368DR,7221,10123,15298,0.082,551
2019-12-05T16:25:19,42.805,6.029,CST-1368DR,7221,10121,15297,0.083,551
2019-12-05T16:28:21,42.805,6.029,CST-1368DR,7221,10120,15295,0.083,551
2019-12-05T16:31:23,42.805,6.029,CST-1368DR,7221,10122,15297,0.083,551
2019-12-05T16:34:24,42.805,6.029,CST-1368DR,7221,10120,15295,0.083,551
2019-12-05T16:37:26,42.805,6.029,CST-1368DR,7221,10120,15295,0.083,551